Weather Roundup
Issued by NWS

Home | Current Version | Previous Version | Graphics & Text | Print | Product List | Glossary On
Versions: 1 2 3 4 5 6 7 8 9 10 11 12 13 14 15 16 17 18 19 20 21 22 23 24 25 26 27 28 29 30 31 32 33 34 35 36 37 38 39 40 41 42 43 44 45 46 47 48 49 50
000
NZUS93 KARX 021510
HRRWXR

CURRENT HOURLY OBSERVATIONS ACROSS
MUCH OF THE UPPER MISSISSIPPI VALLEY
NATIONAL WEATHER SERVICE LA CROSSE WI
900 AM CST MON MAR 02 2015


...SOUTHEAST MINNESOTA...


CITY           SKY/WX    TMP DP  RH WIND       PRES   REMARKS
ROCHESTER      FLURRIES   8   5  87 W3        30.47R
ROCHESTER/MAYO FAIR      13   7  76 W5        30.49R WCI   5
WINONA         SUNNY     18   9  68 CALM      30.53R
AUSTIN         SUNNY      3   0  85 CALM      30.49R
ALBERT LEA       N/A     10   9  92 CALM      30.47R
DODGE CENTER   SUNNY      7   3  85 CALM      30.46R
PRESTON        SUNNY      9   6  88 W3        30.48R
OWATONNA       DRIZZLE   10   7  85 CALM      30.48S
FARIBAULT      SUNNY     10   7  85 CALM      30.50R
$$

...ELSEWHERE IN MINNESOTA...


CITY           SKY/WX    TMP DP  RH WIND       PRES   REMARKS
MINNEAPOLIS    SUNNY     15   9  76 SW6       30.51R WCI   6
INTNL FALLS    MOSUNNY    3   0  87 CALM      30.30F
DULUTH         SUNNY     11   4  73 W6        30.35R WCI   1
RED WING       SUNNY     16   7  67 W3        30.51R
REDWOOD FALLS  SUNNY     12   8  84 S3        30.46R
MANKATO        MOSUNNY   10   7  85 CALM      30.49R
FAIRMONT       MOSUNNY   12   7  79 SW5       30.47R WCI   4
$$

...SOUTHWEST WISCONSIN...


CITY           SKY/WX    TMP DP  RH WIND       PRES   REMARKS
LA CROSSE      SUNNY     18  10  71 CALM      30.52R
PRAIRIE DU CHI SUNNY     11   6  81 CALM      30.54R
BOSCOBEL       SUNNY     13   9  84 SW6       30.53R WCI   4
LONE ROCK      SUNNY     10   4  76 CALM      30.52R
PLATTEVILLE    SUNNY     11   9  89 CALM      30.50S
FORT MC COY    SUNNY     17   8  66 CALM      30.50F
CAMP DOUGLAS   SUNNY     18  10  73 W6        30.48R WCI   9
VIROQUA        FAIR      13  10  88 CALM      30.47R
WIS DELLS      SUNNY     17   8  67 NW6       30.48F WCI   8
$$

...ELSEWHERE IN WISCONSIN...


CITY           SKY/WX    TMP DP  RH WIND       PRES   REMARKS
MILWAUKEE      MOSUNNY   20   8  60 NW12      30.49R WCI   8
MADISON        MOSUNNY   19   9  65 NW6       30.50R WCI  11
GREEN BAY      SUNNY     19   7  59 NW8       30.44F WCI   9
EAU CLAIRE     SUNNY     13   5  70 SW6       30.48R WCI   4
BLACK RVR FLS  FAIR      16   6  64 CALM      30.49S
MEDFORD        SUNNY      9   4  78 SW3       30.40R
WAUSAU         SUNNY     12   5  73 W5        30.41R WCI   4
WIS RAPIDS     SUNNY     14   5  67 NW6       30.48R WCI   5
MARSHFIELD     SUNNY     12   4  70 W6        30.43R WCI   3
RICE LAKE      MOSUNNY    7   4  88 SW3       30.46R
$$

...NORTHEAST IOWA...


CITY           SKY/WX    TMP DP  RH WIND       PRES   REMARKS
DECORAH        SUNNY     10   7  85 CALM      30.49R
MASON CITY     MOSUNNY    7   6  96 CALM      30.50R
CHARLES CITY   SUNNY      7   5  92 CALM      30.50S
OELWEIN        SUNNY      3   0  85 CALM      30.52R
$$

...ELSEWHERE IN IOWA...


CITY           SKY/WX    TMP DP  RH WIND       PRES   REMARKS
DES MOINES     CLOUDY    24  11  57 E7        30.52S WCI  16
IOWA CITY      SUNNY     19  12  74 N8        30.55S WCI   9
FORT DODGE     MOSUNNY   12   9  85 CALM      30.51R
$$

...NORTHERN ILLINOIS...


CITY           SKY/WX    TMP DP  RH WIND       PRES   REMARKS
CHICAGO-OHARE  MOSUNNY   20  11  68 N9        30.50R WCI   9
CHICAGO-MIDWAY MOSUNNY   24  13  62 NW12      30.51R WCI  13
MOLINE         SUNNY     22  11  62 N6        30.53F WCI  14
ROCKFORD       MOSUNNY   15   9  76 CALM      30.53R
PEORIA         SUNNY     25  14  63 VRB5      30.55R WCI  19
$$

NOTE: "FAIR" INDICATES FEW OR NO CLOUDS BELOW 12,000 FEET WITH NO
SIGNIFICANT WEATHER AND/OR OBSTRUCTIONS TO VISIBILITY. WIND
SPEEDS ARE IN MILES-PER-HOUR.



USA.gov is the U.S. government's official web portal to all federal, state and local government web resources and services.